EWG8SH EDDK-LIEE

Flight info

Callsign EWG8SH
Flight time 1h 52m
Altitude 37000
Route COL4B COL DCT MONAX DCT NATOR N850 ODINA DCT PIDAD DCT GOPAT DCT KOVAS
Aircraft A320/M-SDE3FGHIRWY/LB1

Departure

Time 2026-04-26 19:54
Airport Cologne Bonn Airport (EDDK)

Arrival

Time 2026-04-26 21:47
Airport Cagliari Elmas Airport (LIEE)
Time Latitude Longitude Altitude Speed Heading
2026-04-26 19:17 50.87768 7.12400 230 ft 0 kts 288°
2026-04-26 19:41 50.87767 7.12406 230 ft 3 kts 288°
2026-04-26 19:41 50.87761 7.12432 232 ft 4 kts 288°
2026-04-26 19:42 50.87750 7.12486 231 ft 4 kts 300°
2026-04-26 19:42 50.87733 7.12518 231 ft 4 kts 334°
2026-04-26 19:42 50.87715 7.12523 230 ft 1 kts 18°
2026-04-26 19:42 50.87711 7.12521 230 ft 0 kts 18°
2026-04-26 19:45 50.87712 7.12521 230 ft 1 kts 18°
2026-04-26 19:45 50.87734 7.12533 231 ft 6 kts 18°
2026-04-26 19:46 50.87766 7.12603 230 ft 11 kts 79°
2026-04-26 19:46 50.87743 7.12732 231 ft 15 kts 136°
2026-04-26 19:46 50.87661 7.12854 232 ft 17 kts 137°
2026-04-26 19:46 50.87560 7.13002 232 ft 21 kts 138°
2026-04-26 19:47 50.87446 7.13166 232 ft 23 kts 137°
2026-04-26 19:47 50.87406 7.13226 232 ft 24 kts 137°
2026-04-26 19:47 50.87195 7.13532 236 ft 25 kts 137°
2026-04-26 19:47 50.87068 7.13716 241 ft 25 kts 138°
2026-04-26 19:48 50.86942 7.13894 248 ft 23 kts 137°
2026-04-26 19:48 50.86844 7.14039 255 ft 19 kts 136°
2026-04-26 19:48 50.86732 7.14152 256 ft 19 kts 144°
2026-04-26 19:48 50.86635 7.14282 261 ft 18 kts 137°
2026-04-26 19:49 50.86540 7.14421 263 ft 19 kts 138°
2026-04-26 19:49 50.86447 7.14554 269 ft 17 kts 138°
2026-04-26 19:49 50.86362 7.14678 274 ft 16 kts 137°
2026-04-26 19:49 50.86283 7.14791 278 ft 15 kts 137°
2026-04-26 19:50 50.86209 7.14899 283 ft 14 kts 137°
2026-04-26 19:50 50.86131 7.15011 286 ft 16 kts 138°
2026-04-26 19:50 50.86042 7.15140 295 ft 19 kts 137°
2026-04-26 19:50 50.85942 7.15286 296 ft 21 kts 137°
2026-04-26 19:51 50.85831 7.15446 296 ft 22 kts 137°
2026-04-26 19:51 50.85712 7.15619 301 ft 24 kts 139°
2026-04-26 19:51 50.85599 7.15782 307 ft 22 kts 137°
2026-04-26 19:51 50.85497 7.15934 308 ft 18 kts 125°
2026-04-26 19:52 50.85540 7.16095 309 ft 19 kts 47°
2026-04-26 19:52 50.85630 7.16252 308 ft 14 kts 47°
2026-04-26 19:52 50.85712 7.16289 309 ft 14 kts 323°
2026-04-26 19:52 50.85773 7.16201 306 ft 0 kts 319°
2026-04-26 19:53 50.85775 7.16199 306 ft 0 kts 319°
2026-04-26 19:53 50.85779 7.16192 306 ft 5 kts 319°
2026-04-26 19:53 50.85940 7.15963 300 ft 68 kts 316°
2026-04-26 19:54 50.86453 7.15219 282 ft 128 kts 317°
2026-04-26 19:54 50.87228 7.14101 315 ft 167 kts 316°
2026-04-26 19:54 50.88084 7.12828 883 ft 173 kts 318°
2026-04-26 19:54 50.88987 7.11477 1680 ft 185 kts 321°
2026-04-26 19:55 50.90209 7.10810 2114 ft 199 kts
2026-04-26 19:55 50.91551 7.11511 2744 ft 208 kts 23°
2026-04-26 19:55 50.92823 7.12617 3588 ft 210 kts 30°
2026-04-26 19:55 50.93823 7.14366 4352 ft 223 kts 58°
2026-04-26 19:56 50.94254 7.15908 4683 ft 240 kts 63°
2026-04-26 19:56 50.95221 7.19277 5436 ft 262 kts 60°
2026-04-26 19:56 50.95980 7.21955 6291 ft 271 kts 69°
2026-04-26 19:56 50.96142 7.24975 7122 ft 284 kts 96°
2026-04-26 19:57 50.95712 7.28074 8019 ft 289 kts 101°
2026-04-26 19:57 50.95243 7.31195 8904 ft 293 kts 101°
2026-04-26 19:57 50.94919 7.33335 9504 ft 297 kts 101°
2026-04-26 19:57 50.94434 7.36554 10083 ft 303 kts 101°
2026-04-26 19:58 50.93944 7.39807 10240 ft 303 kts 101°
2026-04-26 19:58 50.93453 7.43065 10279 ft 312 kts 101°
2026-04-26 19:58 50.92936 7.46535 10427 ft 340 kts 101°
2026-04-26 19:58 50.92377 7.50277 10911 ft 355 kts 101°
2026-04-26 19:59 50.91802 7.54111 11612 ft 361 kts 101°
2026-04-26 19:59 50.91215 7.58018 12346 ft 367 kts 101°
2026-04-26 19:59 50.90619 7.61980 13079 ft 372 kts 101°
2026-04-26 19:59 50.90012 7.65992 13793 ft 378 kts 102°
2026-04-26 20:00 50.89393 7.70074 14171 ft 382 kts 102°
2026-04-26 20:00 50.88767 7.74178 14293 ft 383 kts 102°
2026-04-26 20:00 50.88137 7.78291 14697 ft 387 kts 102°
2026-04-26 20:00 50.87503 7.82447 15441 ft 389 kts 102°
2026-04-26 20:01 50.86862 7.86628 16123 ft 392 kts 102°
2026-04-26 20:01 50.86210 7.90842 16795 ft 396 kts 102°
2026-04-26 20:01 50.85548 7.95087 17450 ft 399 kts 103°
2026-04-26 20:01 50.84513 7.99191 18070 ft 406 kts 118°
2026-04-26 20:02 50.82826 8.02800 18667 ft 411 kts 134°
2026-04-26 20:02 50.80590 8.05618 19190 ft 414 kts 150°
2026-04-26 20:02 50.77956 8.07463 19704 ft 415 kts 166°
2026-04-26 20:02 50.76091 8.08073 20045 ft 415 kts 176°
2026-04-26 20:03 50.72223 8.08479 20748 ft 418 kts 179°
2026-04-26 20:03 50.69308 8.08753 21268 ft 421 kts 179°
2026-04-26 20:03 50.66371 8.09062 21761 ft 426 kts 175°
2026-04-26 20:03 50.63478 8.10229 22238 ft 434 kts 158°
2026-04-26 20:04 50.60878 8.12671 22696 ft 440 kts 143°
2026-04-26 20:04 50.58454 8.15649 23175 ft 443 kts 142°
2026-04-26 20:04 50.56026 8.18667 23653 ft 447 kts 142°
2026-04-26 20:04 50.53582 8.21713 24072 ft 450 kts 142°
2026-04-26 20:05 50.51275 8.24579 24443 ft 452 kts 142°
2026-04-26 20:05 50.48764 8.27680 24857 ft 455 kts 142°
2026-04-26 20:05 50.46267 8.30749 25257 ft 457 kts 142°
2026-04-26 20:05 50.43754 8.33823 25662 ft 459 kts 142°
2026-04-26 20:06 50.41224 8.36911 26064 ft 461 kts 142°
2026-04-26 20:06 50.38688 8.40004 26445 ft 464 kts 142°
2026-04-26 20:06 50.36136 8.43123 26821 ft 466 kts 142°
2026-04-26 20:06 50.33576 8.46256 27202 ft 468 kts 142°
2026-04-26 20:07 50.31008 8.49402 27579 ft 471 kts 142°
2026-04-26 20:07 50.28415 8.52561 27949 ft 473 kts 143°
2026-04-26 20:07 50.25609 8.55207 28292 ft 473 kts 158°
2026-04-26 20:07 50.22470 8.56668 28628 ft 471 kts 174°
2026-04-26 20:08 50.19260 8.56847 28941 ft 467 kts 187°
2026-04-26 20:08 50.16009 8.56448 29263 ft 469 kts 188°
2026-04-26 20:08 50.12746 8.56018 29593 ft 471 kts 188°
2026-04-26 20:08 50.09476 8.55575 29910 ft 473 kts 188°
2026-04-26 20:09 50.06183 8.55208 30226 ft 477 kts 184°
2026-04-26 20:09 50.02853 8.55228 30510 ft 479 kts 182°
2026-04-26 20:09 49.99516 8.55313 30887 ft 478 kts 181°
2026-04-26 20:09 49.96197 8.55433 31286 ft 477 kts 181°
2026-04-26 20:10 49.92880 8.55562 31679 ft 476 kts 181°
2026-04-26 20:10 49.89574 8.55688 32063 ft 475 kts 181°
2026-04-26 20:10 49.86280 8.55807 32455 ft 473 kts 182°
2026-04-26 20:10 49.82990 8.55917 32835 ft 472 kts 182°
2026-04-26 20:11 49.79706 8.56019 33227 ft 471 kts 182°
2026-04-26 20:11 49.76428 8.56117 33607 ft 470 kts 182°
2026-04-26 20:11 49.73160 8.56212 33982 ft 469 kts 182°
2026-04-26 20:12 49.66645 8.56398 34692 ft 467 kts 182°
2026-04-26 20:12 49.63402 8.56493 35023 ft 466 kts 182°
2026-04-26 20:12 49.60166 8.56588 35333 ft 465 kts 182°
2026-04-26 20:12 49.56934 8.56685 35642 ft 464 kts 182°
2026-04-26 20:13 49.53703 8.56782 35928 ft 463 kts 182°
2026-04-26 20:13 49.50483 8.56881 36215 ft 463 kts 182°
2026-04-26 20:13 49.47263 8.56978 36490 ft 462 kts 182°
2026-04-26 20:13 49.44051 8.57074 36758 ft 461 kts 182°
2026-04-26 20:14 49.40844 8.57168 37017 ft 461 kts 182°
2026-04-26 20:14 49.37641 8.57263 37209 ft 461 kts 182°
2026-04-26 20:14 49.34432 8.57360 37249 ft 461 kts 182°
2026-04-26 20:15 49.28024 8.57553 37240 ft 460 kts 182°
2026-04-26 20:15 49.21621 8.57749 37248 ft 460 kts 182°
2026-04-26 20:16 49.15218 8.57941 37241 ft 460 kts 182°
2026-04-26 20:16 49.08812 8.58128 37232 ft 460 kts 182°
2026-04-26 20:17 49.02400 8.58311 37233 ft 461 kts 182°
2026-04-26 20:17 48.95987 8.58508 37234 ft 461 kts 182°
2026-04-26 20:18 48.89568 8.58703 37243 ft 462 kts 182°
2026-04-26 20:18 48.83139 8.58889 37244 ft 462 kts 181°
2026-04-26 20:19 48.76709 8.59079 37244 ft 462 kts 182°
2026-04-26 20:19 48.70313 8.59267 37258 ft 463 kts 181°
2026-04-26 20:20 48.63860 8.59454 37244 ft 464 kts 181°
2026-04-26 20:20 48.57394 8.59644 37237 ft 465 kts 181°
2026-04-26 20:21 48.50924 8.59832 37239 ft 465 kts 181°
2026-04-26 20:21 48.44444 8.60019 37249 ft 466 kts 181°
2026-04-26 20:22 48.37961 8.60206 37243 ft 466 kts 181°
2026-04-26 20:22 48.31479 8.60392 37247 ft 466 kts 181°
2026-04-26 20:23 48.24990 8.60568 37250 ft 466 kts 181°
2026-04-26 20:23 48.18509 8.60752 37251 ft 466 kts 181°
2026-04-26 20:24 48.12031 8.60946 37251 ft 465 kts 181°
2026-04-26 20:24 48.05555 8.61142 37251 ft 465 kts 181°
2026-04-26 20:25 47.99089 8.61329 37251 ft 464 kts 181°
2026-04-26 20:25 47.92633 8.61503 37252 ft 464 kts 181°
2026-04-26 20:26 47.86464 8.61677 37244 ft 463 kts 181°
2026-04-26 20:26 47.80015 8.61860 37241 ft 463 kts 181°
2026-04-26 20:27 47.73607 8.62032 37237 ft 463 kts 181°
2026-04-26 20:27 47.67170 8.62211 37236 ft 462 kts 181°
2026-04-26 20:28 47.60728 8.62397 37236 ft 462 kts 181°
2026-04-26 20:28 47.54288 8.62584 37237 ft 462 kts 181°
2026-04-26 20:29 47.47857 8.62766 37239 ft 461 kts 181°
2026-04-26 20:29 47.41440 8.62935 37236 ft 461 kts 181°
2026-04-26 20:30 47.35029 8.63109 37238 ft 461 kts 181°
2026-04-26 20:30 47.28621 8.63295 37235 ft 461 kts 181°
2026-04-26 20:31 47.22212 8.63482 37229 ft 460 kts 181°
2026-04-26 20:31 47.15845 8.63654 37221 ft 460 kts 181°
2026-04-26 20:32 47.09442 8.63816 37220 ft 460 kts 181°
2026-04-26 20:32 47.03040 8.63996 37227 ft 460 kts 181°
2026-04-26 20:33 46.96648 8.64176 37224 ft 459 kts 181°
2026-04-26 20:33 46.90262 8.64352 37226 ft 459 kts 181°
2026-04-26 20:34 46.83874 8.64520 37216 ft 459 kts 181°
2026-04-26 20:34 46.77495 8.64688 37208 ft 458 kts 181°
2026-04-26 20:35 46.71162 8.64865 37194 ft 458 kts 181°
2026-04-26 20:35 46.64755 8.65047 37186 ft 458 kts 181°
2026-04-26 20:36 46.58424 8.65220 37178 ft 457 kts 181°
2026-04-26 20:36 46.52066 8.65393 37172 ft 457 kts 181°
2026-04-26 20:37 46.45704 8.65559 37164 ft 456 kts 181°
2026-04-26 20:37 46.39364 8.65716 37157 ft 456 kts 181°
2026-04-26 20:38 46.33019 8.65887 37154 ft 456 kts 181°
2026-04-26 20:38 46.26677 8.66065 37151 ft 455 kts 181°
2026-04-26 20:39 46.20352 8.66234 37149 ft 455 kts 181°
2026-04-26 20:39 46.14026 8.66398 37149 ft 454 kts 181°
2026-04-26 20:40 46.07753 8.66565 37144 ft 454 kts 181°
2026-04-26 20:40 46.01434 8.66699 37145 ft 454 kts 181°
2026-04-26 20:41 45.95116 8.66809 37142 ft 454 kts 182°
2026-04-26 20:41 45.89872 8.66901 37142 ft 453 kts 182°
2026-04-26 20:42 45.83558 8.67021 37123 ft 453 kts 181°
2026-04-26 20:42 45.77258 8.67150 37123 ft 452 kts 181°
2026-04-26 20:43 45.70961 8.67279 37123 ft 452 kts 181°
2026-04-26 20:43 45.64678 8.67405 37122 ft 452 kts 182°
2026-04-26 20:44 45.58394 8.67525 37122 ft 451 kts 182°
2026-04-26 20:44 45.52120 8.67649 37123 ft 451 kts 182°
2026-04-26 20:45 45.45838 8.67773 37123 ft 451 kts 182°
2026-04-26 20:45 45.39609 8.67884 37123 ft 450 kts 182°
2026-04-26 20:46 45.33338 8.68014 37124 ft 450 kts 182°
2026-04-26 20:46 45.27080 8.68140 37124 ft 449 kts 182°
2026-04-26 20:47 45.20829 8.68263 37126 ft 449 kts 182°
2026-04-26 20:47 45.14581 8.68382 37143 ft 448 kts 182°
2026-04-26 20:48 45.08345 8.68501 37151 ft 448 kts 182°
2026-04-26 20:48 45.02154 8.68619 37150 ft 447 kts 182°
2026-04-26 20:49 44.95931 8.68729 37147 ft 447 kts 182°
2026-04-26 20:49 44.89715 8.68845 37144 ft 447 kts 182°
2026-04-26 20:50 44.83498 8.68968 37142 ft 447 kts 182°
2026-04-26 20:50 44.77287 8.69091 37139 ft 446 kts 182°
2026-04-26 20:51 44.71064 8.69208 37162 ft 446 kts 182°
2026-04-26 20:51 44.64855 8.69319 37160 ft 446 kts 182°
2026-04-26 20:52 44.58647 8.69445 37166 ft 446 kts 182°
2026-04-26 20:52 44.52449 8.69562 37166 ft 445 kts 182°
2026-04-26 20:53 44.46255 8.69676 37174 ft 445 kts 182°
2026-04-26 20:53 44.40061 8.69797 37171 ft 444 kts 182°
2026-04-26 20:54 44.33916 8.69912 37171 ft 444 kts 182°
2026-04-26 20:54 44.27740 8.70021 37173 ft 444 kts 182°
2026-04-26 20:55 44.21568 8.70138 37165 ft 444 kts 181°
2026-04-26 20:55 44.15382 8.70258 37169 ft 444 kts 182°
2026-04-26 20:56 44.09196 8.70377 37170 ft 444 kts 182°
2026-04-26 20:56 44.03013 8.70494 37172 ft 444 kts 182°
2026-04-26 20:57 43.96836 8.70605 37167 ft 444 kts 182°
2026-04-26 20:57 43.90700 8.70716 37172 ft 444 kts 182°
2026-04-26 20:58 43.84519 8.70826 37173 ft 444 kts 182°
2026-04-26 20:58 43.78341 8.70939 37174 ft 444 kts 182°
2026-04-26 20:59 43.72158 8.71054 37176 ft 443 kts 182°
2026-04-26 20:59 43.66018 8.71165 37178 ft 443 kts 182°
2026-04-26 21:00 43.59872 8.70862 37177 ft 441 kts 188°
2026-04-26 21:00 43.53760 8.70123 37176 ft 441 kts 188°
2026-04-26 21:01 43.47645 8.69384 37176 ft 441 kts 188°
2026-04-26 21:01 43.41530 8.68645 37173 ft 441 kts 188°
2026-04-26 21:02 43.35397 8.67908 37173 ft 442 kts 188°
2026-04-26 21:02 43.29275 8.67176 37175 ft 442 kts 188°
2026-04-26 21:03 43.23142 8.66441 37178 ft 442 kts 188°
2026-04-26 21:03 43.17011 8.65704 37177 ft 442 kts 188°
2026-04-26 21:04 43.10882 8.64974 37184 ft 442 kts 188°
2026-04-26 21:04 43.04749 8.64249 37191 ft 442 kts 188°
2026-04-26 21:05 42.98625 8.63519 37184 ft 441 kts 188°
2026-04-26 21:05 42.92531 8.62795 37175 ft 441 kts 188°
2026-04-26 21:06 42.86411 8.62071 37173 ft 441 kts 188°
2026-04-26 21:06 42.80291 8.61349 37166 ft 441 kts 188°
2026-04-26 21:07 42.74169 8.60616 37164 ft 441 kts 188°
2026-04-26 21:07 42.68044 8.59887 37161 ft 442 kts 188°
2026-04-26 21:08 42.61919 8.59165 37165 ft 442 kts 188°
2026-04-26 21:08 42.55789 8.58457 37166 ft 442 kts 188°
2026-04-26 21:09 42.49651 8.57746 37169 ft 442 kts 188°
2026-04-26 21:09 42.43519 8.57027 37167 ft 442 kts 188°
2026-04-26 21:10 42.37429 8.56318 37165 ft 442 kts 188°
2026-04-26 21:10 42.31294 8.55604 37173 ft 442 kts 188°
2026-04-26 21:11 42.25164 8.54899 37163 ft 442 kts 188°
2026-04-26 21:11 42.19038 8.54195 37175 ft 442 kts 188°
2026-04-26 21:12 42.12907 8.53477 37176 ft 442 kts 188°
2026-04-26 21:12 42.06775 8.52759 37183 ft 442 kts 188°
2026-04-26 21:13 42.00684 8.52054 37184 ft 442 kts 187°
2026-04-26 21:13 41.94548 8.51356 37184 ft 442 kts 187°
2026-04-26 21:14 41.88422 8.50664 37184 ft 442 kts 187°
2026-04-26 21:14 41.82292 8.49959 37177 ft 442 kts 187°
2026-04-26 21:15 41.76169 8.49259 37179 ft 441 kts 187°
2026-04-26 21:15 41.70053 8.48556 37173 ft 441 kts 187°
2026-04-26 21:16 41.63977 8.47861 37175 ft 441 kts 187°
2026-04-26 21:16 41.57854 8.47165 37171 ft 441 kts 187°
2026-04-26 21:17 41.51734 8.46466 37169 ft 441 kts 187°
2026-04-26 21:17 41.45625 8.45773 37169 ft 441 kts 187°
2026-04-26 21:18 41.39508 8.45083 37167 ft 440 kts 187°
2026-04-26 21:18 41.33387 8.44809 37163 ft 443 kts 176°
2026-04-26 21:19 41.27361 8.46662 37158 ft 446 kts 166°
2026-04-26 21:19 41.21401 8.48950 37154 ft 446 kts 166°
2026-04-26 21:20 41.15432 8.51204 37155 ft 446 kts 166°
2026-04-26 21:20 41.09458 8.53452 37159 ft 446 kts 166°
2026-04-26 21:21 41.03486 8.55707 37159 ft 446 kts 166°
2026-04-26 21:21 40.97559 8.57953 37162 ft 446 kts 166°
2026-04-26 21:22 40.91588 8.60209 37167 ft 446 kts 166°
2026-04-26 21:22 40.85614 8.62446 37171 ft 446 kts 166°
2026-04-26 21:23 40.76643 8.65798 37173 ft 446 kts 166°
2026-04-26 21:23 40.73700 8.66900 37046 ft 447 kts 165°
2026-04-26 21:23 40.70711 8.68021 36773 ft 446 kts 165°
2026-04-26 21:24 40.67726 8.69140 36514 ft 446 kts 165°
2026-04-26 21:24 40.64746 8.70253 36258 ft 446 kts 165°
2026-04-26 21:24 40.61750 8.71374 36001 ft 446 kts 165°
2026-04-26 21:24 40.58763 8.72490 35748 ft 447 kts 165°
2026-04-26 21:25 40.55772 8.73605 35499 ft 447 kts 165°
2026-04-26 21:25 40.52774 8.74719 35247 ft 448 kts 165°
2026-04-26 21:25 40.49774 8.75829 35008 ft 448 kts 165°
2026-04-26 21:25 40.46765 8.76939 34766 ft 449 kts 165°
2026-04-26 21:26 40.43758 8.78055 34525 ft 449 kts 165°
2026-04-26 21:26 40.40767 8.79162 34285 ft 449 kts 165°
2026-04-26 21:26 40.37766 8.80273 33935 ft 446 kts 165°
2026-04-26 21:26 40.34793 8.81372 33342 ft 442 kts 165°
2026-04-26 21:27 40.31847 8.82458 32762 ft 438 kts 165°
2026-04-26 21:27 40.28919 8.83541 32186 ft 435 kts 165°
2026-04-26 21:27 40.26051 8.84603 31618 ft 432 kts 165°
2026-04-26 21:27 40.23173 8.85664 31059 ft 430 kts 165°
2026-04-26 21:28 40.20303 8.86722 30500 ft 427 kts 165°
2026-04-26 21:28 40.17454 8.87773 29888 ft 424 kts 165°
2026-04-26 21:28 40.14628 8.88810 29351 ft 420 kts 165°
2026-04-26 21:28 40.11827 8.89833 28815 ft 415 kts 165°
2026-04-26 21:29 40.09060 8.90844 28286 ft 411 kts 165°
2026-04-26 21:29 40.06336 8.91843 27774 ft 406 kts 165°
2026-04-26 21:29 40.03630 8.92838 27269 ft 402 kts 165°
2026-04-26 21:29 40.00954 8.93819 26781 ft 398 kts 165°
2026-04-26 21:30 39.99191 8.94462 26465 ft 395 kts 165°
2026-04-26 21:30 39.96560 8.95422 25992 ft 391 kts 165°
2026-04-26 21:30 39.93110 8.96680 25387 ft 386 kts 165°
2026-04-26 21:30 39.91366 8.97314 25073 ft 384 kts 165°
2026-04-26 21:31 39.88808 8.98244 24615 ft 380 kts 164°
2026-04-26 21:31 39.86268 8.99170 24150 ft 378 kts 164°
2026-04-26 21:31 39.83778 9.00079 23680 ft 376 kts 164°
2026-04-26 21:31 39.81269 9.00994 23170 ft 373 kts 164°
2026-04-26 21:32 39.78783 9.01899 22704 ft 369 kts 164°
2026-04-26 21:32 39.76323 9.02793 22241 ft 366 kts 164°
2026-04-26 21:32 39.73873 9.03683 21765 ft 364 kts 164°
2026-04-26 21:32 39.71440 9.04566 21293 ft 362 kts 164°
2026-04-26 21:33 39.69020 9.05442 20827 ft 360 kts 164°
2026-04-26 21:33 39.66611 9.06312 20352 ft 359 kts 164°
2026-04-26 21:33 39.64270 9.07412 19873 ft 358 kts 154°
2026-04-26 21:33 39.62129 9.09042 19398 ft 356 kts 147°
2026-04-26 21:34 39.60043 9.10778 18933 ft 356 kts 147°
2026-04-26 21:34 39.57959 9.12502 18454 ft 355 kts 147°
2026-04-26 21:34 39.55872 9.14223 17941 ft 354 kts 148°
2026-04-26 21:34 39.53803 9.15928 17492 ft 352 kts 148°
2026-04-26 21:35 39.51743 9.17623 17037 ft 350 kts 148°
2026-04-26 21:35 39.49695 9.19307 16588 ft 348 kts 148°
2026-04-26 21:35 39.47678 9.20965 16138 ft 347 kts 148°
2026-04-26 21:35 39.45644 9.22636 15701 ft 346 kts 148°
2026-04-26 21:36 39.43612 9.24302 15257 ft 345 kts 148°
2026-04-26 21:36 39.41579 9.25965 14807 ft 345 kts 148°
2026-04-26 21:36 39.39554 9.27624 14378 ft 345 kts 148°
2026-04-26 21:36 39.37529 9.29285 13921 ft 345 kts 148°
2026-04-26 21:37 39.35506 9.30945 13428 ft 343 kts 148°
2026-04-26 21:37 39.33496 9.32592 12974 ft 341 kts 148°
2026-04-26 21:37 39.31498 9.34226 12521 ft 339 kts 148°
2026-04-26 21:37 39.29506 9.35854 12067 ft 338 kts 148°
2026-04-26 21:38 39.27525 9.37471 11602 ft 336 kts 148°
2026-04-26 21:38 39.25553 9.39077 11140 ft 335 kts 148°
2026-04-26 21:38 39.23586 9.40677 10661 ft 334 kts 148°
2026-04-26 21:38 39.21622 9.42275 10289 ft 330 kts 148°
2026-04-26 21:39 39.19714 9.43828 10148 ft 318 kts 148°
2026-04-26 21:39 39.17866 9.45334 9782 ft 314 kts 148°
2026-04-26 21:39 39.15975 9.46736 8956 ft 312 kts 160°
2026-04-26 21:39 39.13896 9.47173 8311 ft 302 kts 185°
2026-04-26 21:40 39.11925 9.46446 7705 ft 292 kts 210°
2026-04-26 21:40 39.10428 9.44787 7133 ft 283 kts 234°
2026-04-26 21:40 39.09584 9.42546 6501 ft 278 kts 255°
2026-04-26 21:40 39.09132 9.40137 5839 ft 275 kts 256°
2026-04-26 21:41 39.08696 9.37759 5273 ft 269 kts 256°
2026-04-26 21:41 39.08274 9.35447 4723 ft 264 kts 256°
2026-04-26 21:41 39.07856 9.33178 4203 ft 258 kts 256°
2026-04-26 21:41 39.07446 9.30963 3711 ft 251 kts 256°
2026-04-26 21:42 39.07133 9.28821 3622 ft 240 kts 269°
2026-04-26 21:42 39.07391 9.26718 3577 ft 239 kts 291°
2026-04-26 21:42 39.08252 9.24906 3495 ft 237 kts 315°
2026-04-26 21:42 39.09474 9.23487 3406 ft 237 kts 320°
2026-04-26 21:43 39.10711 9.22092 3297 ft 236 kts 320°
2026-04-26 21:43 39.11941 9.20691 3197 ft 236 kts 319°
2026-04-26 21:43 39.13165 9.19284 2935 ft 235 kts 319°
2026-04-26 21:43 39.14382 9.17879 2635 ft 235 kts 319°
2026-04-26 21:44 39.15600 9.16473 2315 ft 227 kts 319°
2026-04-26 21:44 39.16741 9.15155 2020 ft 213 kts 318°
2026-04-26 21:44 39.17831 9.13896 1740 ft 207 kts 318°
2026-04-26 21:44 39.18846 9.12723 1482 ft 189 kts 318°
2026-04-26 21:45 39.19788 9.11634 1228 ft 176 kts 318°
2026-04-26 21:45 39.20660 9.10626 1002 ft 163 kts 317°
2026-04-26 21:45 39.21463 9.09698 779 ft 156 kts 317°
2026-04-26 21:45 39.22259 9.08777 571 ft 151 kts 317°
2026-04-26 21:46 39.23035 9.07878 374 ft 149 kts 317°
2026-04-26 21:46 39.23810 9.06980 174 ft 150 kts 317°
2026-04-26 21:46 39.24575 9.06090 15 ft 139 kts 317°
2026-04-26 21:46 39.25158 9.05412 15 ft 85 kts 318°
2026-04-26 21:47 39.25472 9.05049 15 ft 36 kts 318°
2026-04-26 21:47 39.25598 9.04906 17 ft 22 kts 319°
2026-04-26 21:47 39.25731 9.04862 16 ft 17 kts 13°
2026-04-26 21:47 39.25763 9.04980 16 ft 17 kts 116°
2026-04-26 21:48 39.25677 9.05088 15 ft 18 kts 138°
2026-04-26 21:48 39.25576 9.05205 15 ft 21 kts 137°
2026-04-26 21:48 39.25488 9.05308 15 ft 11 kts 138°
2026-04-26 21:48 39.25427 9.05389 15 ft 14 kts 123°
2026-04-26 21:49 39.25400 9.05510 15 ft 9 kts 100°
2026-04-26 21:49 39.25391 9.05572 17 ft 6 kts 102°
2026-04-26 21:49 39.25393 9.05616 15 ft 5 kts 73°
2026-04-26 21:49 39.25402 9.05652 15 ft 4 kts 72°
2026-04-26 21:50 39.25400 9.05683 15 ft 3 kts 108°
2026-04-26 21:50 39.25393 9.05709 16 ft 7 kts 109°
2026-04-26 21:50 39.25403 9.05788 16 ft 6 kts 57°
2026-04-26 21:50 39.25428 9.05830 15 ft 6 kts 51°
2026-04-26 21:51 39.25442 9.05870 15 ft 4 kts 96°
2026-04-26 21:51 39.25426 9.05891 16 ft 3 kts 139°
2026-04-26 21:51 39.25404 9.05913 15 ft 0 kts 142°